DW8293 Weather Reports


time (UTC)temp
C
wind
direction
speed
KPH
gust
KPH
rain 1hr
cm
rain 24hr
cm
rain mn
cm
humidity
%
barometer
mb
20260506025405 -3 0 0.0 0.0 0.00 0.00 0.00 92 1008.6
20260506024503 -3 0 0.0 0.0 0.00 0.00 0.00 91 1008.4
20260506023603 -2 0 0.0 0.0 0.00 0.00 0.00 91 1008.7
20260506022724 -2 0 0.0 0.0 0.00 0.00 0.00 91 1008.5
20260506021805 -2 0 0.0 0.0 0.00 0.00 0.00 91 1008.5
20260506020903 -3 0 0.0 0.0 0.00 0.00 0.00 91 1008.5
20260506020003 -2 0 0.0 0.0 0.00 0.00 0.00 91 1008.4
20260506015403 -2 0 0.0 0.0 0.00 0.00 0.00 91 1008.4
20260506014503 -2 0 0.0 0.0 0.00 0.00 0.00 92 1008.1
20260506013605 -3 0 0.0 0.0 0.00 0.00 0.00 91 1008.2
20260506012703 -2 0 0.0 0.0 0.00 0.00 0.00 90 1008.1
20260506011805 -2 247 0.0 3.2 0.00 0.00 0.00 90 1008.4
20260506010924 -2 0 0.0 0.0 0.00 0.00 0.00 91 1008.1
20260506010005 -2 0 0.0 0.0 0.00 0.00 0.00 90 1008.0
20260506005405 -2 0 0.0 0.0 0.00 0.00 0.00 90 1008.0
20260506004524 -2 0 0.0 0.0 0.00 0.00 0.00 90 1007.9
20260506003605 -2 0 0.0 0.0 0.00 0.00 0.00 89 1007.8
20260506002703 -2 0 0.0 0.0 0.00 0.00 0.00 87 1007.6
20260506001803 -1 0 0.0 0.0 0.00 0.00 0.00 87 1007.7
20260506000905 -1 0 0.0 0.0 0.00 0.00 0.00 87 1007.7
20260506000025 -1 0 0.0 0.0 0.00 0.00 0.00 86 1007.5
20260505235403 -1 0 0.0 0.0 0.00 0.00 0.00 85 1007.4
20260505234503 -1 247 0.0 3.2 0.00 0.00 0.00 85 1007.4
20260505233603 -1 247 1.6 3.2 0.00 0.00 0.00 83 1007.5
20260505232705 0 0 0.0 0.0 0.00 0.00 0.00 81 1007.7
20260505231805 0 0 0.0 0.0 0.00 0.00 0.00 81 1007.5
20260505230903 0 247 0.0 3.2 0.00 0.00 0.00 78 1007.3
20260505230024 0 247 0.0 3.2 0.00 0.00 0.00 75 1007.5
20260505225403 1 247 3.2 3.2 0.00 0.00 0.00 75 1007.4
20260505224503 0 247 1.6 3.2 0.00 0.00 0.00 77 1007.2
20260505223603 0 247 1.6 3.2 0.00 0.00 0.00 79 1007.6
20260505222703 0 247 3.2 3.2 0.00 0.00 0.00 79 1007.2
20260505221803 0 247 0.0 3.2 0.00 0.00 0.00 80 1007.2
20260505220903 0 247 1.6 3.2 0.00 0.00 0.00 79 1007.3
20260505220003 1 247 0.0 6.4 0.00 0.00 0.00 74 1007.2
20260505215404 1 247 1.6 6.4 0.00 0.00 0.00 70 1007.0
20260505214503 2 247 3.2 6.4 0.00 0.00 0.00 69 1007.1
20260505213603 2 247 3.2 3.2 0.00 0.00 0.00 70 1006.8
20260505212703 2 247 1.6 6.4 0.00 0.00 0.00 67 1006.9
20260505211825 2 247 3.2 6.4 0.00 0.00 0.00 67 1006.9
20260505210925 2 245 3.2 6.4 0.00 0.00 0.00 67 1006.8
20260505210003 2 243 3.2 6.4 0.00 0.00 0.00 67 1006.5
20260505205403 3 242 3.2 6.4 0.00 0.00 0.00 65 1006.5
20260505204503 3 247 3.2 6.4 0.00 0.00 0.00 64 1006.6
20260505203604 3 241 3.2 6.4 0.00 0.00 0.00 63 1006.5
20260505202726 3 241 4.8 6.4 0.00 0.00 0.00 63 1006.3
20260505201805 3 236 3.2 9.7 0.00 0.00 0.00 64 1006.6
20260505200905 4 241 4.8 6.4 0.00 0.00 0.00 63 1006.1
20260505200004 4 236 6.4 6.4 0.00 0.00 0.00 61 1006.2
20260505195403 4 233 3.2 6.4 0.00 0.00 0.00 57 1006.2
20260505194503 5 254 3.2 6.4 0.00 0.00 0.00 56 1006.0
20260505193604 5 266 3.2 3.2 0.00 0.00 0.00 55 1006.2
20260505192724 5 265 1.6 6.4 0.00 0.00 0.00 55 1005.8
20260505191803 5 265 3.2 6.4 0.00 0.00 0.00 53 1005.8
20260505190903 5 270 3.2 6.4 0.00 0.00 0.00 53 1005.7
20260505190024 6 270 3.2 6.4 0.00 0.00 0.00 52 1005.6
20260505185425 6 266 3.2 6.4 0.00 0.00 0.00 51 1005.8
20260505184503 6 254 3.2 6.4 0.00 0.00 0.00 50 1005.7
20260505183625 6 273 4.8 6.4 0.00 0.00 0.00 51 1005.7
20260505182724 6 272 4.8 6.4 0.00 0.00 0.00 50 1005.4
20260505181803 6 280 4.8 9.7 0.00 0.00 0.00 49 1005.3
20260505180903 6 285 4.8 11.3 0.00 0.00 0.00 48 1005.4
20260505180004 7 288 6.4 9.7 0.00 0.00 0.00 48 1005.2
20260505175403 7 286 4.8 17.7 0.00 0.00 0.00 48 1005.3
20260505174504 7 284 3.2 11.3 0.00 0.00 0.00 48 1005.1
20260505173605 7 295 8.0 12.9 0.00 0.00 0.00 49 1005.2
20260505172724 7 302 4.8 20.9 0.00 0.00 0.00 49 1005.1
20260505171803 7 327 16.1 20.9 0.00 0.00 0.00 47 1005.1
20260505170903 7 324 9.7 22.5 0.00 0.00 0.00 48 1005.0
20260505170004 7 318 11.3 33.8 0.00 0.00 0.00 48 1005.1
20260505165403 7 341 6.4 9.7 0.00 0.00 0.00 44 1005.1
20260505164504 8 355 4.8 9.7 0.00 0.00 0.00 44 1004.7
20260505163603 8 331 6.4 11.3 0.00 0.00 0.00 42 1004.5
20260505162703 8 339 8.0 14.5 0.00 0.00 0.00 40 1004.5
20260505161805 8 338 8.0 14.5 0.00 0.00 0.00 38 1004.5
20260505160903 7 311 11.3 20.9 0.00 0.00 0.00 41 1004.6
20260505152703 8 298 4.8 11.3 0.00 0.00 0.00 36 1004.2
20260505151803 9 263 6.4 17.7 0.00 0.00 0.00 31 1004.0
20260505150903 9 284 12.9 17.7 0.00 0.00 0.00 32 1004.1
20260505124504 8 255 9.7 17.7 0.00 0.00 0.00 41 1003.7
20260505123603 9 263 3.2 17.7 0.00 0.00 0.00 43 1003.7
20260505122703 9 258 6.4 20.9 0.00 0.00 0.00 43 1003.8
20260505121803 8 250 8.0 24.1 0.00 0.00 0.00 50 1003.6
20260505120903 8 285 8.0 20.9 0.00 0.00 0.00 44 1003.8
20260505120004 8 298 6.4 32.2 0.00 0.00 0.00 38 1003.6
20260505115403 8 306 16.1 32.2 0.00 0.00 0.00 43 1003.9
20260505114503 7 310 6.4 24.1 0.00 0.00 0.00 43 1003.8
20260505113603 7 289 14.5 27.4 0.00 0.00 0.00 46 1003.5
20260505112703 8 268 11.3 17.7 0.00 0.00 0.00 49 1003.4
20260505111803 7 244 3.2 12.9 0.00 0.00 0.00 50 1003.4
20260505110903 7 260 6.4 20.9 0.00 0.00 0.00 50 1003.5
20260505101803 8 300 11.3 20.9 0.00 0.00 0.00 43 1003.3
20260505100903 8 309 4.8 17.7 0.00 0.00 0.00 44 1003.1
20260505100003 8 312 4.8 14.5 0.00 0.00 0.00 46 1003.0
20260505095424 7 301 4.8 20.9 0.00 0.00 0.00 49 1003.1
20260505094505 8 295 6.4 22.5 0.00 0.00 0.00 44 1002.9
20260505093603 8 311 11.3 20.9 0.00 0.00 0.00 42 1003.1
20260505092705 8 303 3.2 25.7 0.00 0.00 0.00 49 1003.1
20260505091803 7 290 6.4 22.5 0.00 0.00 0.00 47 1003.2
20260505090903 8 319 8.0 17.7 0.00 0.00 0.00 47 1003.0
20260505090005 7 316 12.9 17.7 0.00 0.00 0.00 48 1003.0
20260505085405 7 311 3.2 17.7 0.00 0.00 0.00 51 1002.9
20260505084505 7 324 6.4 12.9 0.00 0.00 0.00 52 1002.9
20260505083603 8 310 3.2 17.7 0.00 0.00 0.00 49 1003.0
20260505082705 6 270 9.7 17.7 0.00 0.00 0.00 52 1002.9
20260505081826 7 266 6.4 17.7 0.00 0.00 0.00 53 1002.7
20260505080906 6 297 9.7 14.5 0.00 0.00 0.00 56 1002.5
20260505080003 6 311 6.4 14.5 0.00 0.00 0.00 55 1002.6
20260505075426 7 322 6.4 17.7 0.00 0.00 0.00 55 1002.6
20260505074503 6 305 11.3 17.7 0.00 0.00 0.00 56 1002.6
20260505073605 6 303 8.0 17.7 0.00 0.00 0.00 59 1002.3
20260505072703 6 304 9.7 17.7 0.00 0.00 0.00 58 1002.5
20260505071805 5 307 6.4 12.9 0.00 0.00 0.00 59 1002.5
20260505070926 6 312 4.8 17.7 0.00 0.00 0.00 59 1002.2
20260505070003 5 303 11.3 17.7 0.00 0.00 0.00 58 1002.3
20260505065405 5 311 6.4 17.7 0.00 0.00 0.00 60 1002.3
20260505064508 5 304 12.9 22.5 0.00 0.00 0.00 58 1002.4
20260505063624 5 299 11.3 22.5 0.00 0.00 0.00 61 1002.0
20260505062705 5 306 11.3 17.7 0.00 0.00 0.00 61 1002.2
20260505061803 5 315 9.7 17.7 0.00 0.00 0.00 60 1002.3
20260505060903 4 309 8.0 17.7 0.00 0.00 0.00 61 1002.2
20260505060003 4 319 8.0 22.5 0.00 0.00 0.00 61 1002.0
20260505055424 4 310 9.7 22.5 0.00 0.00 0.00 61 1001.8
20260505054505 4 315 6.4 17.7 0.00 0.00 0.00 62 1001.9
20260505053605 4 305 8.0 22.5 0.00 0.00 0.00 62 1001.9
20260505052703 3 289 14.5 17.7 0.00 0.00 0.00 64 1001.9
20260505051803 3 290 6.4 17.7 0.00 0.00 0.00 68 1001.7
20260505050905 3 297 9.7 17.7 0.00 0.00 0.00 70 1001.8
20260505040903 2 276 6.4 14.5 0.00 0.00 0.00 87 1001.3
20260505040004 2 277 9.7 14.5 0.00 0.00 0.00 89 1001.1
20260505035407 2 275 6.4 12.9 0.00 0.00 0.00 90 1001.0
20260505034503 2 284 6.4 12.9 0.00 0.00 0.00 91 1001.0
20260505033603 2 285 4.8 12.9 0.00 0.00 0.00 91 1000.8
20260505032704 2 284 4.8 11.3 0.00 0.00 0.00 92 1000.7
20260505031803 2 285 6.4 11.3 0.00 0.00 0.00 92 1000.7
20260505030905 2 278 6.4 9.7 0.00 0.00 0.00 93 1000.6
20260505030003 2 277 3.2 11.3 0.00 0.00 0.00 92 1000.4